Presure
188 200 161 200 188 181 172 180 174 169 171 168 165 163 162 162 161 152 159 161 161 153 150 150 154 161 161 156 143 142 143 144 146 152 153 152 150 153 154 145 142 144 133
193 184 184 178 171 172 172 152 153 159 158 161 159 153 147 140 148 161 149 148 155 161 160 150 145 150 144 143 153 136 139 142 141 146 145 153 146 154 154 153 153 153 158
181 175 170 156 162 159 160 147 159 158 155 147 144 152 152 150 150 156 148 139 136 135 149 154 158 157 154 152 146 144 156 145 144 143 152 153 152 153 157 162 157 150 147
169 163 146 157 149 154 154 152 150 150 147 136 145 156 155 143 145 148 152 156 159 154 149 148 147 147 144 142 158 157 148 139 151 147 154 151 142 144 150 151 149 150 143
151 155 148 148 150 153 145 150 149 140 145 146 143 143 145 152 153 152 154 150 150 148 154 160 161 161 150 154 155 143 140 146 150 143 143 141 142 140 143 146 146 142 160
151 152 150 147 149 144 145 145 150 152 151 151 153 151 146 147 146 155 155 156 153 154 148 151 154 147 134 135 130 139 143 146 137 141 141 147 150 147 150 156 153 138 138
145 144 144 144 148 147 149 153 143 154 148 139 143 147 148 154 152 158 150 150 146 151 150 138 141 131 147 139 133 141 144 148 147 141 134 139 168 141 143 143 149 160 156
147 150 151 155 145 150 156 157 155 151 152 150 149 145 142 145 150 150 130 142 142 138 134 148 144 145 134 139 146 139 143 141 143 145 155 160 152 149 137 162 159 156 162
153 155 149 152 142 153 148 161 164 150 135 131 125 143 149 141 150 152 139 142 153 145 146 152 127 138 137 123 155 132 152 152 151 146 149 147 158 161 159 146 155 161 159
128 156 156 159 156 140 149 164 145 141 132 136 139 131 145 145 126 135 137 127 139 142 142 141 136 139 131 127 150 151 156 159 159 155 155 146 146 143 154 157 163 163 178
146 145 148 147 148 150 145 145 148 152 150 138 149 150 126 127 128 131 147 143 163 151 137 140 163 132 130 143 153 142 150 155 147 142 151 151 151 156 157 176 181 162 176
157 157 161 167 130 158 137 153 141 150 140 148 150 131 113 143 142 107 133 131 126 136 142 136 142 145 142 156 159 156 152 147 140 159 145 154 164 170 155 168 181 175 174
155 138 150 124 155 151 145 140 145 144 139 150 144 151 144 149 143 148 128 140 138 134 142 144 146 134 142 146 149 146 140 143 154 159 159 176 151 151 176 181 156 188 171
142 140 131 137 126 154 146 141 143 141 140 145 144 137 129 135 101 140 136 139 142 135 144 145 128 150 140 143 145 148 160 158 165 162 158 178 172 175 165 181 184 196 199
136 113 129 134 130 134 144 156 123 119 143 143 148 129 148 140 139 117 132 152 139 143 136 147 153 154 155 146 145 149 157 154 162 152 169 173 158 166 184 188 187 189 241
130 142 135 135 140 136 139 130 137 153 152 153 149 130 143 146 144 125 141 154 144 143 143 140 150 148 146 151 158 160 155 141 145 176 168 150 185 183 198 186 197 270 252
160 153 148 140 138 142 138 135 137 137 141 143 144 152 157 151 149 119 154 147 134 152 156 150 150 159 149 167 159 141 178 176 168 168 180 184 189 187 194 256 275 270 277
138 143 141 117 135 152 132 141 143 145 151 144 150 151 137 147 157 144 142 134 159 154 150 165 168 115 170 183 174 170 159 172 168 182 190 195 199 226 230 224 277 284 285
135 123 149 145 145 144 139 144 156 148 142 151 152 145 152 148 141 153 143 158 154 149 164 172 175 150 159 193 180 174 179 186 193 185 228 303 240 274 284 287 298 290 326
131 133 136 133 127 131 137 141 148 143 139 155 151 145 148 135 154 152 158 152 154 168 162 186 184 180 175 149 193 193 186 180 242 242 233 236 293 302 314 303 315 377 374
132 137 135 132 140 135 142 144 145 142 152 145 145 150 147 154 157 149 156 152 176 166 177 200 168 171 184 187 186 182 189 235 226 233 297 309 305 305 318 323 408 584 500
143 133 138 136 147 151 150 153 153 155 154 150 152 161 154 144 164 157 172 153 174 186 191 160 132 182 189 189 199 239 251 225 301 292 309 302 309 324 434 521 505 462 377
142 142 143 148 145 148 148 144 160 157 160 155 160 160 170 159 170 182 170 181 198 203 177 193 192 188 194 198 233 231 226 244 295 313 316 325 331 461 495 428 395 397 372
147 149 141 149 147 144 153 154 151 160 152 153 173 152 174 172 166 175 154 190 191 179 195 183 183 196 230 232 229 235 271 299 300 318 324 451 437 401 355 421 394 371 348
159 155 151 153 136 160 161 163 157 155 170 151 173 164 165 167 172 155 191 180 192 182 186 180 225 225 228 220 224 247 301 312 322 328 434 393 374 424 428 395 332 356 327
155 143 145 157 158 156 161 161 155 154 176 166 161 171 175 193 183 187 177 182 187 181 183 223 223 241 236 226 266 294 298 325 356 401 384 454 459 412 333 378 359 337 327
Wind_Speed
12 24 9 29 26 23 14 20 18 13 15 10 6 5 5 6 7 14 12 14 16 18 22 25 26 23 25 28 37 40 42 43 45 42 43 45 48 49 51 57 61 62 67
26 25 28 24 18 18 18 5 6 5 4 5 5 5 13 20 18 14 19 22 22 21 23 28 33 31 35 42 36 44 44 45 47 45 48 49 54 53 54 56 57 60 62
26 23 17 6 10 5 6 6 4 4 3 11 16 14 17 18 20 20 23 31 34 36 35 29 29 31 34 36 39 42 41 44 48 53 51 53 56 58 61 66 64 64 63
16 11 6 5 2 0 1 2 6 9 12 20 18 19 19 25 28 28 29 28 26 30 33 34 35 37 39 42 41 43 45 50 51 52 56 58 59 61 65 69 70 72 70
1 4 4 5 3 5 11 10 12 20 20 21 24 26 26 26 27 29 29 32 33 34 35 36 38 39 42 45 47 46 49 54 57 54 58 60 65 67 70 74 78 75 88
2 3 5 10 11 15 16 18 18 19 21 23 24 26 28 29 32 31 33 35 36 37 39 40 43 43 46 45 49 52 59 63 58 64 66 73 78 78 83 86 86 79 78
11 11 13 16 17 19 19 18 23 21 24 28 29 30 31 31 33 33 36 38 40 42 43 39 41 43 55 54 54 64 69 75 75 71 69 77 84 81 85 86 91 95 94
15 15 16 16 21 22 21 21 23 25 26 28 30 33 36 37 37 38 40 43 43 42 44 57 56 55 51 60 68 69 75 75 82 86 88 87 86 87 83 98 98 98 103
18 18 20 21 22 24 25 25 25 26 30 33 35 35 36 40 41 42 47 51 54 54 58 61 53 61 64 60 76 68 78 82 85 87 89 86 95 98 99 93 103 109 109
25 23 23 23 25 29 29 28 32 34 34 37 39 39 42 45 41 50 51 47 56 60 63 63 63 68 60 63 81 82 85 88 90 93 95 91 93 92 105 111 116 116 122
25 26 27 29 30 32 35 36 37 38 40 43 43 45 45 48 52 51 62 63 63 67 64 68 75 67 68 83 88 88 94 98 93 91 103 104 107 114 116 127 123 119 128
26 27 29 28 35 33 33 37 41 39 43 45 47 47 46 55 60 55 63 64 57 68 72 75 83 82 84 93 94 97 98 99 91 109 103 114 119 123 113 122 129 124 128
29 31 33 38 36 37 40 43 44 46 53 49 51 53 52 58 64 65 62 75 81 81 86 91 90 80 93 99 101 98 96 101 110 113 117 126 109 111 132 132 109 137 123
37 40 42 46 46 43 48 51 52 54 57 57 59 60 63 67 52 69 74 78 81 86 95 96 79 100 97 102 105 109 115 117 123 119 115 125 131 132 121 136 139 144 146
44 44 48 49 51 54 55 51 51 50 61 63 65 63 68 73 76 65 76 81 82 87 94 102 102 105 107 106 108 112 118 114 124 101 129 132 115 122 142 143 141 144 141
51 52 54 56 56 58 59 60 55 63 65 68 70 66 75 78 80 72 82 86 86 86 90 96 105 102 106 111 116 118 113 98 107 132 130 108 143 143 148 140 147 132 132
51 57 59 63 64 64 65 69 72 74 75 76 78 80 82 81 83 73 90 85 82 94 98 101 102 113 108 121 118 96 129 128 130 133 143 146 148 144 151 145 130 130 128
63 66 67 59 70 70 72 75 76 79 82 83 86 86 78 87 94 86 88 82 108 103 99 114 121 71 122 123 121 121 114 130 127 141 146 147 147 142 141 139 127 127 130
69 65 72 74 75 78 78 83 86 85 82 90 92 90 95 92 86 103 95 109 109 100 118 120 114 97 109 124 126 126 134 138 141 139 145 130 145 139 123 122 123 121 122
74 75 78 78 75 80 85 87 91 88 86 98 98 94 97 77 106 108 113 109 105 124 117 124 124 123 124 107 133 133 132 132 144 146 141 145 131 127 126 120 124 108 99
80 81 82 82 88 87 91 94 96 94 103 97 98 103 93 108 111 103 115 106 128 116 123 127 115 119 132 133 131 130 134 140 140 144 130 126 122 124 124 120 99 25 20
87 85 90 90 94 96 98 102 105 108 110 105 109 114 106 88 121 111 125 102 126 133 132 105 88 133 137 137 141 147 149 137 130 136 131 129 132 124 90 32 23 14 33
93 95 96 98 99 102 102 97 114 114 117 105 115 117 123 114 124 130 124 124 131 127 123 132 139 140 141 136 147 141 144 152 140 136 130 129 121 68 26 34 33 12 15
98 100 95 104 105 97 112 112 111 118 107 110 126 100 128 126 116 126 104 132 134 131 141 138 138 145 154 153 146 149 152 142 137 137 131 74 62 60 61 9 10 12 12
107 108 109 113 86 117 119 121 113 115 127 99 127 120 125 124 127 100 137 128 140 138 144 137 155 153 155 149 151 159 147 143 137 134 72 70 65 32 11 11 30 13 18
109 100 106 117 118 117 121 124 119 108 132 125 118 129 132 137 139 126 118 138 142 137 141 155 153 155 156 156 159 149 145 141 129 78 78 40 14 18 38 18 17 15 17
Wind_Direction
142 130 163 127 129 130 138 137 141 157 154 164 173 180 204 230 244 272 256 264 262 268 275 278 275 275 280 282 286 286 286 284 284 283 284 287 288 287 286 284 284 285 282
134 134 132 135 138 136 135 196 218 168 177 170 191 239 273 283 280 245 283 285 276 268 268 278 278 273 281 282 279 288 290 288 287 286 286 290 286 291 290 290 290 290 296
137 136 138 143 133 122 114 278 135 171 218 284 287 261 261 278 281 271 272 293 297 297 276 274 280 283 288 291 287 287 293 292 290 291 293 296 295 297 301 302 298 291 286
139 133 293 115 322 37 298 275 282 278 283 306 288 257 265 286 281 277 277 280 282 283 286 288 290 291 290 289 295 294 289 291 299 295 303 299 290 294 300 300 298 297 288
359 128 337 315 291 242 295 263 275 304 286 278 287 284 280 278 282 284 287 288 293 296 297 297 298 298 293 298 301 293 291 302 304 296 298 295 296 293 299 302 300 293 298
251 252 270 285 275 291 288 284 273 271 273 274 276 283 291 293 293 293 293 296 296 298 298 302 303 299 295 296 292 301 303 306 296 301 299 303 303 301 300 297 297 292 291
287 292 287 285 274 278 279 275 282 275 284 294 295 292 293 297 300 298 299 299 297 300 301 297 303 294 309 310 300 309 308 307 308 304 296 303 300 300 299 298 298 299 297
268 265 265 259 278 276 272 271 270 279 282 288 292 299 301 301 299 300 303 301 304 303 299 308 303 304 302 307 306 310 308 307 306 304 300 301 300 298 294 301 300 299 300
263 267 272 268 285 272 282 278 276 281 298 305 303 301 296 300 302 301 303 304 302 304 307 304 295 309 299 289 301 305 301 301 301 301 301 299 302 303 302 299 302 302 301
302 265 269 275 276 287 285 283 289 292 300 299 297 301 298 298 304 301 304 300 307 305 304 304 307 306 306 303 301 300 302 304 305 304 305 303 303 299 304 304 303 303 302
271 277 278 281 283 282 286 288 288 287 290 298 294 293 296 305 305 307 307 308 306 302 309 307 303 307 301 306 305 307 307 306 307 304 306 306 306 306 306 306 303 302 302
267 271 278 280 311 279 290 284 295 293 300 296 296 306 291 304 306 288 312 313 306 308 307 309 307 305 307 304 304 304 306 307 303 306 305 306 305 305 303 304 303 301 301
267 299 278 306 280 280 283 294 289 299 300 296 296 296 295 299 303 301 300 305 306 307 306 305 305 307 306 307 307 307 307 306 305 305 305 306 300 300 303 303 301 300 299
287 293 306 300 309 281 289 296 295 296 299 292 293 299 305 305 301 301 305 302 301 306 303 303 305 304 307 306 307 307 306 306 306 306 303 302 304 303 303 302 300 298 298
297 290 307 301 304 300 288 288 303 302 298 298 294 304 298 301 300 294 306 297 304 298 304 301 303 304 304 304 305 305 305 306 306 302 305 304 304 301 302 301 303 303 300
302 286 297 298 292 297 296 303 293 292 293 292 294 302 294 295 295 298 302 297 296 298 299 300 301 302 302 303 304 306 306 306 301 305 304 303 302 301 299 303 300 302 299
278 279 283 293 297 294 298 302 300 302 298 295 295 294 294 296 298 300 301 299 299 301 302 302 302 302 302 303 305 304 303 304 305 304 302 301 302 303 303 305 306 305 302
285 284 288 298 298 286 300 295 295 294 294 295 296 297 299 301 301 303 303 299 303 304 304 301 301 304 302 301 302 304 303 303 303 302 301 300 300 302 300 299 303 300 299
289 296 284 287 290 291 294 294 293 295 297 296 298 300 300 303 303 302 304 301 303 305 303 302 303 301 303 303 305 305 305 303 302 305 306 311 305 307 307 304 303 301 303
291 292 291 293 297 297 295 294 293 296 299 295 297 302 301 301 299 301 302 304 303 302 304 305 306 305 307 302 305 305 305 306 312 310 307 307 309 308 307 304 307 305 301
291 288 290 294 290 294 292 293 293 297 294 299 300 299 299 298 301 304 302 302 300 305 305 305 309 305 307 309 307 307 308 312 311 310 313 312 309 310 311 308 306 312 295
283 291 290 292 288 288 289 290 290 290 290 295 297 294 300 306 297 301 300 305 304 303 305 307 302 310 309 309 310 313 314 311 315 316 316 316 313 312 303 319 326 306 300
283 285 286 286 289 289 290 295 288 290 291 293 294 298 297 302 300 303 304 303 303 303 308 307 309 311 311 311 313 315 315 316 318 317 316 315 315 309 315 312 307 280 276
282 283 288 286 289 288 287 289 293 291 293 300 294 298 298 299 303 303 303 304 305 306 308 312 312 313 314 314 314 316 317 319 319 316 317 314 314 312 312 278 246 248 250
276 277 282 282 291 284 285 286 289 294 292 299 295 298 297 302 301 300 304 307 306 311 310 313 313 314 315 315 316 316 319 318 319 317 314 315 313 305 253 231 301 232 248
277 285 284 283 284 286 287 287 292 295 291 296 300 299 300 300 303 304 301 308 309 312 312 312 315 314 316 315 315 317 319 319 318 315 316 315 282 292 310 227 225 224 228